TimeCST,TemperatureF,Dew PointF,Humidity,Sea Level PressureIn,VisibilityMPH,Wind Direction,Wind SpeedMPH,Gust SpeedMPH,PrecipitationIn,Events,Conditions,WindDirDegrees,DateUTC
6:00 AM,75,73,93,29.88,0,Calm,Calm,,,Fog,Heavy Fog,,2013-09-09 12:00:00
6:00 AM,75.2,73.4,94,29.87,0.5,Calm,Calm,-,N/A,Fog,Fog,0,2013-09-09 12:00:00
7:00 AM,77.0,75.2,94,29.88,0.3,Calm,Calm,-,N/A,Fog,Fog,0,2013-09-09 13:00:00
7:10 AM,77.0,75.2,94,29.89,1.2,ESE,2.3,-,N/A,,Scattered Clouds,120,2013-09-09 13:10:00
7:30 AM,77.0,75.2,94,29.89,6.2,ESE,3.5,-,N/A,,Scattered Clouds,110,2013-09-09 13:30:00
8:00 AM,78.8,77.0,94,29.90,6.2,Calm,Calm,-,N/A,,Scattered Clouds,0,2013-09-09 14:00:00
9:00 AM,82,78,83,29.91,12,Calm,Calm,,,,Partly Cloudy,,2013-09-09 15:00:00
9:00 AM,82.4,77.0,84,29.90,6.2,Calm,Calm,-,N/A,,Scattered Clouds,0,2013-09-09 15:00:00
10:00 AM,82.4,77.0,84,29.90,6.2,Calm,Calm,-,N/A,,Scattered Clouds,0,2013-09-09 16:00:00
11:00 AM,87.8,75.2,66,29.88,6.2,Calm,Calm,-,N/A,,Scattered Clouds,0,2013-09-09 17:00:00
12:00 PM,89,76,59,29.87,12,West,3.5,,,,Overcast,260,2013-09-09 18:00:00
12:00 PM,87.8,77.0,70,29.86,6.2,West,3.5,-,N/A,,Mostly Cloudy,260,2013-09-09 18:00:00
1:00 PM,87.8,77.0,70,29.83,6.2,West,11.5,-,N/A,,Mostly Cloudy,260,2013-09-09 19:00:00
2:00 PM,87.8,77.0,70,29.82,6.2,West,12.7,-,N/A,,Scattered Clouds,260,2013-09-09 20:00:00
3:00 PM,82,76,76,29.83,12,SSW,9.2,,,,Overcast,200,2013-09-09 21:00:00
3:00 PM,82.4,75.2,79,29.81,6.2,SSW,9.2,-,N/A,,Mostly Cloudy,200,2013-09-09 21:00:00
4:00 PM,82.4,75.2,79,29.81,6.2,SW,5.8,-,N/A,,Mostly Cloudy,220,2013-09-09 22:00:00
5:00 PM,82.4,75.2,79,29.83,6.2,WSW,3.5,-,N/A,,Mostly Cloudy,240,2013-09-09 23:00:00
6:00 PM,81,75,78,29.87,12,West,3.5,,,,Scattered Clouds,280,2013-09-10 00:00:00
6:00 PM,80.6,75.2,84,29.85,6.2,West,3.5,-,N/A,,Scattered Clouds,280,2013-09-10 00:00:00
7:00 PM,80.6,75.2,84,29.87,6.2,Calm,Calm,-,N/A,,Scattered Clouds,0,2013-09-10 01:00:00
8:00 PM,80.6,75.2,84,29.88,6.2,Calm,Calm,-,N/A,,Scattered Clouds,0,2013-09-10 02:00:00